Regional Weather Roundup
Issued by NWS

Home | Current Version | Previous Version | Graphics & Text | Print | Product List | Glossary On
Versions: 1 2 3 4 5 6 7 8 9 10 11 12 13 14 15 16 17 18 19 20 21 22 23 24 25 26 27 28 29 30 31 32 33 34 35 36 37 38 39 40 41 42 43 44 45 46 47 48 49 50
000
ASUS43 KOAX 280210
RWRNE

WEATHER ROUNDUP FOR NEBRASKA
NATIONAL WEATHER SERVICE OMAHA NE
900 PM CDT WED APR 27 2016

NOTES: SATELLITE DATA IS BEING USED TO AUGMENT CLOUD COVER ABOVE
       12000 FEET.
       "FAIR" INDICATES FEW OR NO CLOUDS BELOW 12,000 FEET WITH NO
       SIGNIFICANT WEATHER AND/OR OBSTRUCTIONS TO VISIBILITY.

  * THESE STATIONS DO NOT REPORT WEATHER SUCH AS RAIN...SNOW OR FOG.

NEZ001>004-019>022-054>056-280300-
NEBRASKA PANHANDLE

CITY           SKY/WX    TMP DP  RH WIND       PRES   REMARKS
SCOTTSBLUFF    PTCLDY    41  30  65 NW14      29.83R
ALLIANCE       CLOUDY    32  30  92 N15       29.81R WCI  22
CHADRON        LGT SNOW  33  31  92 N12       29.87R FOG     WCI  24
KIMBALL        CLEAR     37  28  69 N17G23    29.83R WCI  28
SIDNEY         CLEAR     39  28  64 N20G28    29.80R WCI  29
$$

NEZ057>060-069>072-079>082-280300-
SOUTHWEST NEBRASKA

CITY           SKY/WX    TMP DP  RH WIND       PRES   REMARKS
NORTH PLATTE   CLOUDY    39  33  79 NW18      29.77R WCI  30
IMPERIAL       PTCLDY    43  37  79 NW15      29.78R
LEXINGTON      CLOUDY    39  34  80 NW21      29.74R WCI  29
MCCOOK         CLEAR     43  34  70 NW13      29.76R
OGALLALA       CLOUDY    41  32  71 N16G23    29.80R
$$

NEZ005>010-023>029-035>040-094-280300-
NORTH CENTRAL NEBRASKA

CITY           SKY/WX    TMP DP  RH WIND       PRES   REMARKS
VALENTINE      CLOUDY    34  31  88 NW15      29.77R WCI  24
AINSWORTH      CLOUDY    35  35  99 NW12      29.75R WCI  27
BROKEN BOW     CLOUDY    37  34  89 NW17      29.72R WCI  27
O`NEILL        CLOUDY    43  42  95 N17       29.69R FOG
ORD            CLOUDY    39  37  92 NW20G28   29.67R WCI  29
THEDFORD       CLOUDY    35  33  92 NW15G23   29.77R WCI  25
$$

NEZ041-046>049-061>064-073>077-083>087-280300-
SOUTH CENTRAL NEBRASKA

CITY           SKY/WX    TMP DP  RH WIND       PRES   REMARKS
GRAND ISLAND   CLOUDY    41  38  89 NW24G32   29.64R
AURORA         CLOUDY    43  41  93 NW35G40   29.61R
HASTINGS       CLOUDY    41  36  82 NW28G35   29.65R
HEBRON         CLOUDY    43  39  88 W17G25    29.64R
HOLDREGE       CLOUDY    40  36  84 NW12G21   29.72R WCI  33
KEARNEY *      CLOUDY    39  34  81 NW22      29.70R WCI  29
YORK           CLOUDY    45  43  93 NW29G36   29.56R
$$

NEZ011>018-030>034-042>045-280300-
NORTHEAST NEBRASKA

CITY           SKY/WX    TMP DP  RH WIND       PRES   REMARKS
NORFOLK        CLOUDY    49  47  93 NE18G25   29.58R
ALBION         RAIN      47  45  91 NW16      29.61R
BLAIR          DRIZZLE   48  46  93 S7        29.54R
COLUMBUS *     CLOUDY    52  43  71 NW9       29.57R
FREMONT        LGT RAIN  48  47  97 S3        29.55R
TEKAMAH        LGT RAIN  51  49  92 NE22G29   29.54R
WAYNE          CLOUDY    48  47  96 NE13      29.62R
$$

NEZ050>053-065>068-078-088>093-280300-
SOUTHEAST NEBRASKA

CITY           SKY/WX    TMP DP  RH WIND       PRES   REMARKS
LINCOLN        CLOUDY    46  43  89 S8        29.55R
OMAHA EPPLEY   LGT RAIN  51  46  83 S9        29.54R
BEATRICE       DRIZZLE   43  42  95 SW22G30   29.57S
FALLS CITY     CLOUDY    49  40  71 SW15G25   29.62R
NEBRASKA CITY  CLOUDY    47  44  89 SW13G22   29.58R
PLATTSMOUTH    CLOUDY    48  43  82 S16G22    29.57R
$$

NEZ044-045-051>053-067-280300-
OMAHA AREA

CITY           SKY/WX    TMP DP  RH WIND       PRES   REMARKS
OMAHA EPPLEY   LGT RAIN  51  46  83 S9        29.54R
BLAIR          DRIZZLE   48  46  93 S7        29.54R
FREMONT        LGT RAIN  48  47  97 S3        29.55R
MILLARD        CLOUDY    50  44  79 S5        29.54R
OFFUTT AFB     CLOUDY    49  43  79 S6        29.54R
PLATTSMOUTH    CLOUDY    48  43  82 S16G22    29.57R
WAHOO          DRIZZLE   48  46  91 SW7       29.55R
$$




USA.gov is the U.S. government's official web portal to all federal, state and local government web resources and services.